PROMETHEUS 2-3

Last updated on Wed Jul 09 2025 00:03:43 GMT+0000 (Coordinated Universal Time)

1 41855U 16067H 25189.54569664 .00036830 00000+0 64070-3 0 9992 2 41855 98.0671 45.4760 0006339 142.2300 217.9396 15.50688664474893
UTC large
Height (km)
Speed (km/s)
/
Latitude / Longitude
Inclination (degrees)
Orbital Period (minutes)
Azimuth
Elevation
Range (km)
Doppler Factor

Next 0 passes for location: London (51.5072 / 0.1276)

Sorry there are no passes over London.